Weather History for KMSN - March, 2013

Change the Weather History Date:

Sunday, March 31, 2013

  Actual Average Record
Temperature  
Mean Temperature 39 °F 40 °F  
Max Temperature 47 °F 50 °F 82 °F (1981)
Min Temperature 31 °F 30 °F 5 °F (1969)
Degree Days  
Heating Degree Days 26 25  
Month to date heating degree days 1182 962  
Since 1 July heating degree days 6340 6449  
Cooling Degree Days 0 0  
Month to date cooling degree days 0 0  
Year to date cooling degree days 0 0  
Moisture  
Dew Point 33 °F    
Average Humidity 74    
Maximum Humidity 96    
Minimum Humidity 51    
Precipitation  
Precipitation T in 0.09 in 1.52 in (1993)
Month to date precipitation 2.41 2.20  
Year to date precipitation 7.69 4.88  
Snow  
Snow T in 0.20 in 7.70 in (1926)
Month to date snowfall 15.2 7.0  
Since 1 July snowfall 70.3 48.1  
Snow Depth 1.00 in    
Sea Level Pressure  
Sea Level Pressure 29.80 in    
Wind  
Wind Speed 8 mph (WNW)    
Max Wind Speed 20 mph    
Max Gust Speed 29 mph    
Visibility 7 miles    
Events      
T = Trace of Precipitation, MM = Missing Value Source: NWS Daily Summary

Daily Weather History Graph

Daily Weather History Graph

Search for Another Location

Airport or City:

Trip Planner

Search our weather history database for the weather conditions in past years. The results will help you decide how hot, cold, wet, or windy it might be!

Date:

Astronomy

Mar. 31, 2013 Rise Set
Actual Time 6:40 AM CDT 7:22 PM CDT
Civil Twilight 6:11 AM CDT 7:51 PM CDT
Nautical Twilight 5:37 AM CDT 8:25 PM CDT
Astronomical Twilight 5:02 AM CDT 9:01 PM CDT
Moon No Moon Rise 9:21 AM CDT (3/31)
Length of Visible Light 13h 39m
Length of Day
12h 42m
Waning Gibbous, 77% of the Moon is Illuminated
Mar 31
Waning Gibbous
Apr 2
Last Quarter
Apr 10
New
Apr 18
First Quarter
Apr 25
Full

Hourly Weather History & Observations

Time (CDT) Temp. Windchill Dew Point Humidity Pressure Visibility Wind Dir Wind Speed Gust Speed Precip Events Conditions
12:01 AM 42.8 °F - 39.2 °F 87% 29.81 in 3.0 mi Calm Calm - N/A   Overcast
12:40 AM 42.8 °F 39.3 °F 41.0 °F 93% 29.81 in 2.5 mi WNW 5.8 mph - N/A   Overcast
12:53 AM 43.0 °F 38.8 °F 41.0 °F 93% 29.82 in 3.0 mi WNW 6.9 mph - N/A   Overcast
1:43 AM 41.0 °F 36.4 °F 37.4 °F 87% 29.81 in 6.0 mi WNW 6.9 mph - N/A   Overcast
1:53 AM 39.9 °F 34.5 °F 37.9 °F 93% 29.83 in 6.0 mi NW 8.1 mph - N/A   Overcast
2:16 AM 39.2 °F 35.9 °F 35.6 °F 87% 29.81 in 7.0 mi WNW 4.6 mph - N/A   Scattered Clouds
2:35 AM 39.2 °F 35.9 °F 35.6 °F 87% 29.80 in 7.0 mi NW 4.6 mph - N/A   Mostly Cloudy
2:53 AM 37.9 °F 35.5 °F 36.0 °F 93% 29.81 in 6.0 mi WNW 3.5 mph - N/A   Overcast
3:07 AM 39.2 °F 37.0 °F 35.6 °F 87% 29.79 in 6.0 mi West 3.5 mph - N/A   Overcast
3:53 AM 39.9 °F 36.7 °F 36.0 °F 86% 29.80 in 6.0 mi WNW 4.6 mph - N/A   Overcast
4:53 AM 39.9 °F 36.7 °F 37.0 °F 89% 29.79 in 5.0 mi WNW 4.6 mph - N/A   Overcast
5:24 AM 39.2 °F 37.0 °F 37.4 °F 93% 29.77 in 5.0 mi West 3.5 mph - N/A   Overcast
5:53 AM 39.9 °F 35.8 °F 37.9 °F 93% 29.79 in 4.0 mi West 5.8 mph - N/A   Overcast
6:53 AM 39.0 °F 35.7 °F 37.0 °F 93% 29.78 in 3.0 mi Variable 4.6 mph - N/A   Overcast
7:53 AM 39.0 °F 36.8 °F 36.0 °F 89% 29.77 in 3.0 mi Variable 3.5 mph - N/A   Overcast
8:53 AM 39.9 °F 35.8 °F 37.0 °F 89% 29.77 in 4.0 mi Variable 5.8 mph - N/A   Mostly Cloudy
9:20 AM 41.0 °F 35.8 °F 35.6 °F 81% 29.74 in 5.0 mi SW 8.1 mph - N/A   Haze
9:53 AM 43.0 °F 40.3 °F 37.0 °F 80% 29.75 in 7.0 mi WSW 4.6 mph - N/A   Partly Cloudy
10:53 AM 45.0 °F 40.6 °F 36.0 °F 71% 29.75 in 10.0 mi West 8.1 mph - N/A   Partly Cloudy
11:53 AM 46.0 °F 41.0 °F 35.1 °F 66% 29.75 in 10.0 mi WNW 10.4 mph - N/A   Partly Cloudy
12:53 PM 44.1 °F 38.1 °F 34.0 °F 68% 29.75 in 10.0 mi WNW 11.5 mph 19.6 mph N/A   Scattered Clouds
1:17 PM 42.8 °F 37.0 °F 33.8 °F 70% 29.75 in 9.0 mi West 10.4 mph 21.9 mph N/A   Mostly Cloudy
1:53 PM 39.9 °F 31.4 °F 33.1 °F 77% 29.78 in 9.0 mi WNW 16.1 mph 24.2 mph N/A   Overcast
2:53 PM 39.9 °F 32.9 °F 30.0 °F 68% 29.80 in 9.0 mi WNW 11.5 mph 21.9 mph N/A   Overcast
3:22 PM 39.2 °F 30.5 °F 30.2 °F 70% 29.77 in 10.0 mi WNW 16.1 mph 21.9 mph N/A   Overcast
3:53 PM 42.1 °F 36.1 °F 30.0 °F 62% 29.78 in 10.0 mi WNW 10.4 mph 20.7 mph N/A   Mostly Cloudy
4:53 PM 42.1 °F 37.1 °F 30.0 °F 62% 29.79 in 9.0 mi WNW 8.1 mph - N/A   Scattered Clouds
5:53 PM 39.9 °F 33.4 °F 27.0 °F 60% 29.81 in 10.0 mi WNW 10.4 mph 16.1 mph N/A   Mostly Cloudy
6:53 PM 37.0 °F 31.0 °F 28.9 °F 73% 29.83 in 8.0 mi WNW 8.1 mph - 0.00 in   Mostly Cloudy
7:53 PM 36.0 °F 29.6 °F 27.0 °F 70% 29.85 in 10.0 mi WNW 8.1 mph - N/A   Partly Cloudy
8:53 PM 36.0 °F 27.5 °F 21.9 °F 57% 29.88 in 10.0 mi NW 12.7 mph 19.6 mph N/A   Partly Cloudy
9:53 PM 34.0 °F 26.0 °F 21.0 °F 59% 29.91 in 10.0 mi NW 10.4 mph - N/A   Clear
10:53 PM 33.1 °F 26.1 °F 18.0 °F 54% 29.93 in 10.0 mi WNW 8.1 mph - N/A   Partly Cloudy
11:53 PM 32.0 °F 24.2 °F 18.0 °F 56% 29.94 in 10.0 mi NW 9.2 mph - N/A   Clear